PEGASUS DEB

Satellite information

Favourite Embed

Satellite Type and Status

DEBRISIN ORBIT

Key statistics

Satellite PEGASUS DEB at a glance.

Uptime

11432

Days in orbit

Revolutions

≈ 14.5

Per day

Orbit

LEO

Low Earth Orbit

Inclination

81.9

Latest

Satellite identification and parameters

Extended collection of information and parameters for PEGASUS DEB.

Object identification

Identified? True

Debris? True

Object name: PEGASUS DEB

International designator: 1994-029AGC

Object number (NORAD): 39929

Object ID (CCSDS): 39929

Country: UNITED STATES OF AMERICA (US)

Current information (Y/N): Y

RCS size: SMALL

Orbital parameters

Period: 99.341 minutes

Inclination: 81.942 deg

SMA: 7105.243 km

Apoapsis: 899.462 km

Periapsis: 554.753 km

RAAN: 112.3648 deg

Eccentricy: 0.02425736

Argument of periapsis: 322.6617 deg

Mean anomaly: 35.7924 deg

Mean motion: 14.49553935 rev/day

Mean motion (dot): 0.00008715 rev/day2

B* drag term: 0.0015526375 1/REarth

Two-line elements (TLE)

Creation date: Sept. 3, 2025, 2:21 a.m.

Reference frame: TEME

Reference center: EARTH

Epoch: Sept. 2, 2025, 10:10 p.m. UTC

TLE line 0: 0 PEGASUS DEB

TLE line 1: 1 39929U 94029AGC 25245.92405754 .00008715 00000-0 15526-2 0 9992

TLE line 2: 2 39929 81.9420 112.3648 0242574 322.6617 35.7924 14.49553935589273

Live tracking on map

Real-time ground track for satellite PEGASUS DEB.

In-orbit conjunctions

A list of the most updated potential collisions computed for object PEGASUS DEB.

Target Orbit TCA Probability of collision Miss distance Type
PORCUPINE 1 LEO 2025-07-18 12:21:36 0.0004000321 709.0 (m) PAYLOAD

Associated space launch

PEGASUS DEB was lifted into orbit during the mission ‘Pegasus HAPS | Space Test Experiments Platform 2 (STEP-2)’, on board a Pegasus HAPS space rocket.

The launch took place on May 19, 1994, 5:03 p.m. from Edwards Air Force Base.

For more information about the launch, click the button.

Launch to space Pegasus HAPS | Space Test Experiments Platform 2 (STEP-2)
Pegasus HAPS | Space Test Experiments Platform 2 (STEP-2)

Agency: N/A

Status: Launch Successful

Launch date: May 19, 1994, 5:03 p.m. UTC

Rocket: Pegasus HAPS

Launch pad: Edwards Air Force Base

Location: Air launch to orbit

...

Latest news about this satellite

There are no fresh news available about this satellite. Check back as we update our databases every day.


Newsletter sign-up

Weekly statistics, charts and insights to help you stay on top of the space industry.